RH
74 48 52 14 42 89 92 97 15 91 98 89 99 100 86 96 97 84 95 100 100 61 52 85 80 79 100 99 99 98 100 99 100 99 97 86 91 86 86 94 98 97 96 98 100 97 88 57 44 45 44 37 34 34
86 50 55 11 28 69 98 94 21 87 99 88 98 100 87 92 93 84 98 100 100 52 55 82 62 74 99 100 100 100 99 96 95 100 98 83 90 87 74 75 87 88 80 70 70 77 57 53 50 49 46 49 44 42
80 62 52 15 17 64 95 95 27 62 99 96 98 98 79 88 92 82 88 100 99 53 58 72 65 65 91 98 99 100 99 100 100 99 100 98 97 99 88 80 73 72 72 70 65 63 61 55 52 40 40 46 47 52
72 70 44 23 11 53 84 85 32 52 97 100 99 100 78 83 89 78 80 100 99 70 86 71 80 61 79 86 93 99 100 100 99 100 99 99 88 80 87 84 83 74 68 66 66 68 63 54 52 42 47 52 53 54
75 74 49 10 9 46 77 83 60 59 97 100 100 93 70 80 87 83 90 100 99 85 85 68 62 58 68 80 84 83 79 100 95 99 92 95 90 68 60 61 61 63 56 60 64 52 54 50 58 59 58 60 61 64
70 67 48 12 9 50 71 85 72 76 97 99 98 95 70 85 87 84 100 99 100 82 100 87 63 58 60 72 82 77 70 83 78 84 76 74 70 64 65 60 43 57 63 61 62 64 66 63 54 60 67 68 72 76
76 64 44 16 10 48 74 82 84 92 97 100 99 82 72 89 90 94 97 97 99 95 99 89 76 58 58 57 66 70 72 71 73 79 75 68 69 79 82 68 43 43 51 65 72 73 68 68 66 63 70 77 82 86
68 58 42 20 11 54 78 83 75 91 98 99 98 83 92 100 91 91 100 85 99 97 88 87 79 72 58 62 68 71 80 82 85 84 80 79 78 79 76 38 37 40 40 47 56 58 68 73 68 67 80 88 92 90
68 69 45 23 12 63 82 93 84 92 98 98 99 81 100 100 91 90 98 100 91 99 99 99 97 84 71 60 60 67 68 76 72 80 80 76 72 64 40 34 36 41 50 60 71 79 82 81 73 78 93 95 90 67
66 66 43 27 14 71 84 96 95 94 98 98 98 100 100 97 93 84 99 99 100 100 99 99 97 88 85 93 96 93 90 90 94 78 74 77 58 39 52 50 60 60 65 68 65 63 58 65 73 67 74 65 49 42
57 60 42 26 13 68 90 98 99 97 98 98 98 98 99 99 100 97 98 95 94 98 98 98 98 94 87 98 100 100 99 99 96 92 93 93 66 42 40 59 74 84 87 78 73 72 61 85 83 66 61 49 42 35
50 61 37 26 11 60 93 97 98 97 97 98 98 100 100 100 97 99 97 96 81 74 87 89 88 95 91 99 100 98 95 90 86 86 89 69 39 34 34 37 66 99 99 88 78 83 62 80 79 61 48 40 36 33
56 55 36 24 9 64 94 96 98 98 98 97 98 99 96 92 78 83 84 77 60 53 53 58 73 92 90 97 98 91 87 82 77 69 64 33 22 17 15 26 43 86 100 90 92 76 64 59 56 49 41 38 37 36
61 39 34 17 10 81 95 96 97 98 97 97 98 98 82 79 59 63 58 51 41 37 36 40 49 91 94 99 82 66 69 69 63 55 29 23 20 18 16 24 52 87 97 99 90 65 64 57 46 41 39 40 39 35
36 34 28 9 19 90 95 96 97 97 97 96 94 84 64 64 54 50 53 50 45 40 40 42 73 74 91 78 57 51 55 54 41 25 22 19 17 17 18 27 54 95 99 97 74 72 57 48 43 42 42 38 33 30
26 22 15 10 57 95 95 96 97 97 97 97 92 88 66 65 71 61 55 57 52 47 45 68 86 72 72 51 48 43 41 28 24 21 18 26 28 19 24 41 72 98 95 83 79 68 49 45 44 38 32 31 30 31
22 20 18 41 90 97 94 96 97 97 97 95 95 91 81 73 66 63 59 60 55 49 51 66 63 60 57 53 45 36 30 23 21 23 33 33 27 23 26 49 83 100 94 92 64 48 44 38 34 32 31 31 31 29
17 20 33 74 93 96 95 96 97 97 96 96 94 88 83 78 72 64 60 64 63 65 62 62 59 54 51 49 43 40 35 29 27 32 33 34 26 31 43 64 92 99 81 51 45 38 35 34 34 34 33 32 28 22
23 15 19 76 92 96 96 97 96 96 96 93 91 91 88 79 78 76 77 90 81 75 75 73 63 55 52 47 44 41 42 32 31 32 35 35 40 47 68 79 60 52 45 38 36 36 38 38 38 37 34 29 23 19
27 19 14 44 90 95 95 96 96 96 97 99 89 89 82 88 95 89 96 97 92 90 96 95 69 58 52 48 46 45 42 39 36 37 38 46 55 57 56 53 43 38 36 38 40 40 39 39 38 35 28 22 16 13
28 23 16 33 88 95 96 96 96 96 97 97 98 94 84 74 78 93 97 98 97 98 99 95 82 67 58 53 53 53 60 71 55 46 43 46 62 62 50 40 37 38 41 40 38 39 41 38 32 24 17 15 13 13
26 24 20 31 81 94 95 96 95 96 96 96 97 97 98 100 97 99 99 96 96 96 96 97 97 96 97 94 94 93 72 54 55 62 67 69 67 54 42 38 40 40 37 39 44 45 39 27 19 16 15 14 14 14
26 28 23 63 85 89 96 96 96 96 96 97 97 96 96 96 98 99 98 96 95 94 96 96 96 94 87 89 83 78 68 77 84 85 89 82 57 43 44 51 49 40 44 50 49 38 24 18 17 15 13 12 17 31
29 29 35 69 79 87 92 96 96 96 96 96 96 96 96 96 96 96 96 98 96 98 97 98 96 92 80 73 66 69 78 90 90 88 74 57 62 72 67 52 50 57 60 54 33 23 18 17 11 9 15 27 43 62
29 34 38 47 56 69 89 94 96 96 96 95 95 95 95 96 96 96 96 96 96 97 97 97 96 93 92 86 84 93 91 89 93 94 78 78 81 78 78 78 75 67 46 27 22 19 10 8 12 16 30 52 69 78
40 37 37 40 48 60 84 94 95 96 96 96 96 96 96 96 96 95 94 95 97 96 96 96 95 95 95 95 96 95 90 86 75 70 72 74 86 90 92 86 51 29 25 21 12 9 11 14 22 41 63 76 81 82
46 45 39 38 38 42 59 72 84 95 95 96 96 96 96 95 95 93 91 96 96 96 96 96 96 96 96 96 95 94 93 90 92 90 90 91 90 68 39 29 25 18 12 9 10 14 22 35 56 73 80 83 82 81
50 51 48 45 45 40 39 55 67 90 94 96 96 96 96 95 92 88 89 96 96 96 96 96 96 96 96 96 96 95 95 95 95 94 91 66 42 32 23 15 12 11 12 15 20 31 50 67 77 81 82 82 82 80
52 49 48 51 51 52 46 46 57 65 73 75 90 96 97 95 96 100 100 97 97 97 97 97 97 96 96 96 96 96 95 95 88 62 48 39 30 23 17 15 16 22 28 38 51 67 76 81 82 82 82 82 81 78
57 53 53 55 54 51 49 50 47 48 54 63 74 79 85 94 96 96 97 97 97 97 97 96 96 96 96 96 96 96 90 76 67 57 44 29 22 23 22 26 39 52 60 69 76 81 84 85 84 84 84 82 78 76
50 57 62 62 61 60 58 58 56 55 53 50 60 92 91 93 100 98 97 96 96 97 97 97 97 97 96 95 94 91 81 70 58 39 33 33 40 46 48 55 67 73 78 82 85 87 88 87 86 84 81 80 76 73
56 60 64 68 70 68 69 71 66 66 66 59 56 55 73 93 99 99 100 99 97 96 96 95 95 94 93 90 81 65 50 43 40 40 46 56 61 64 71 77 82 85 88 90 90 87 86 85 83 81 79 75 67 50
70 78 81 84 84 84 83 80 76 80 79 72 63 62 60 58 56 52 53 55 65 68 70 69 66 61 58 56 56 56 54 52 53 60 69 70 75 82 88 92 94 94 92 89 87 85 83 82 78 72 67 55 43 34
Wind_Speed
32 32 28 22 17 16 18 22 17 28 32 38 29 27 26 24 21 21 21 23 20 21 13 12 12 10 5 15 21 26 28 29 28 19 14 9 6 11 6 13 28 22 18 14 12 6 10 9 9 9 7 6 5 6
30 31 28 21 18 17 18 22 18 28 33 42 31 29 27 24 21 22 22 21 21 19 13 12 10 12 8 7 18 23 17 30 27 13 12 15 9 14 11 10 19 19 19 18 13 13 10 9 10 12 17 13 10 8
29 29 27 21 19 17 19 21 18 25 35 39 36 25 28 25 22 23 22 20 21 18 16 12 12 11 12 5 8 22 24 15 23 23 13 11 8 17 11 8 16 19 25 22 15 19 18 16 16 12 12 11 10 8
27 27 29 21 20 17 18 19 19 26 35 43 31 30 27 25 23 23 23 19 20 17 17 11 14 13 13 10 6 8 19 10 5 9 16 15 9 11 12 12 14 20 19 23 26 25 20 19 20 15 13 12 10 10
26 27 29 22 20 17 18 18 19 28 31 39 33 26 28 26 24 23 24 20 22 20 10 17 15 13 13 15 13 8 8 11 13 13 9 9 8 6 10 13 16 22 23 23 20 21 20 18 13 13 15 16 14 13
26 26 27 23 20 17 17 17 17 31 32 35 35 26 27 25 25 22 27 23 25 24 7 7 17 19 17 15 16 15 13 17 13 19 17 16 15 12 8 13 16 11 12 16 15 13 13 13 14 17 19 18 17 16
26 26 26 22 20 16 16 16 16 29 36 35 29 26 26 26 26 29 26 30 23 24 18 6 8 21 20 20 18 18 18 18 20 19 19 17 15 16 19 19 13 10 12 16 17 17 15 14 15 16 18 20 18 17
25 24 24 22 20 15 16 17 19 29 36 41 32 26 26 26 25 28 20 26 22 26 22 12 11 16 25 23 21 19 19 18 18 19 20 21 21 22 22 24 21 21 19 20 19 18 18 18 15 18 19 19 18 16
24 24 24 23 19 14 16 16 22 31 38 40 34 28 28 28 29 29 18 17 25 29 15 13 18 17 21 25 25 21 21 20 18 22 24 21 26 19 23 25 22 18 15 14 16 19 20 19 17 17 18 18 17 14
23 23 23 23 18 14 16 14 21 32 41 40 33 32 32 33 31 28 24 18 22 28 28 10 19 15 14 20 22 21 20 17 11 20 21 30 40 35 32 29 21 17 15 12 15 13 13 16 18 17 17 17 14 11
23 22 23 23 18 14 14 12 17 29 38 39 42 41 37 35 26 31 14 22 18 18 19 29 17 16 19 19 22 18 9 10 6 11 13 11 29 24 19 29 33 25 19 16 20 14 12 11 16 18 17 14 12 10
21 20 23 22 17 13 13 12 26 39 38 43 44 36 33 33 18 17 12 15 13 23 13 24 33 26 19 18 17 17 8 6 7 8 9 9 25 20 20 17 26 31 24 21 21 14 16 20 20 17 15 12 9 8
18 20 24 20 17 13 12 10 41 45 45 36 37 39 28 22 18 18 24 20 23 15 30 24 26 32 25 20 13 10 12 10 7 8 8 10 9 9 9 14 19 25 24 24 19 17 19 17 16 15 11 7 7 10
17 22 23 18 16 12 10 12 34 37 44 36 20 26 23 17 19 22 29 30 29 27 10 27 27 29 26 25 11 9 10 7 7 8 10 11 11 12 12 12 17 21 23 21 20 23 18 18 15 10 6 7 11 14
21 22 20 17 15 10 10 16 35 48 46 25 15 18 29 24 28 28 16 22 27 24 20 23 30 22 27 11 11 10 9 8 11 13 13 10 10 12 14 17 21 21 21 23 25 18 17 14 9 6 8 12 16 17
24 21 17 17 11 7 10 20 39 49 24 19 16 20 33 31 18 24 27 17 24 28 26 28 21 11 13 10 11 11 8 9 10 12 11 11 10 13 15 19 23 23 24 26 18 15 12 8 6 8 12 15 17 17
23 20 18 15 7 4 7 17 37 44 21 15 21 18 23 30 26 17 20 24 24 29 35 25 17 13 11 12 14 15 13 12 10 13 11 7 9 12 16 21 25 25 23 19 16 11 7 5 8 11 14 16 17 17
24 19 19 14 7 0 3 14 27 17 11 11 15 21 15 23 29 28 23 27 30 33 35 29 20 19 10 10 13 24 17 15 16 15 11 11 14 16 19 23 24 23 20 16 11 7 6 8 10 13 16 17 17 17
26 21 18 13 8 2 4 8 13 8 11 16 14 14 16 20 25 27 25 28 29 35 38 27 12 18 18 13 11 10 13 16 17 15 16 17 19 22 26 25 23 19 14 10 8 7 9 11 14 16 17 17 17 18
22 22 16 14 8 2 2 4 7 7 13 17 18 17 17 13 20 27 28 32 36 41 35 26 20 11 14 14 13 15 16 15 15 16 21 25 26 27 25 22 18 15 11 9 8 9 12 15 17 18 17 18 18 19
19 19 15 12 7 3 2 4 7 7 14 18 21 22 22 19 21 22 26 33 38 44 36 36 22 16 16 17 16 15 15 15 17 16 16 24 29 26 21 17 14 11 9 8 10 14 17 18 18 18 18 18 19 20
19 19 16 9 6 4 2 1 5 10 13 19 22 22 26 28 26 24 23 29 36 40 31 22 25 22 18 16 15 12 15 17 18 21 24 26 25 21 17 14 12 9 10 14 18 19 19 18 17 17 18 19 21 23
17 17 13 9 5 4 2 1 4 6 6 15 21 15 22 24 28 30 26 32 32 29 31 26 15 9 9 12 17 20 23 25 27 28 28 25 20 17 14 13 14 15 17 20 20 19 17 16 17 18 19 21 23 24
13 13 8 7 8 5 5 3 1 3 6 11 14 11 17 18 21 24 21 29 32 26 25 23 12 13 16 18 20 24 29 32 30 29 24 20 18 17 15 16 18 20 24 22 18 17 16 17 18 19 21 22 22 22
9 7 6 7 7 8 5 4 3 1 2 7 11 8 13 17 17 17 20 24 25 26 20 23 21 21 21 23 26 29 31 32 30 25 22 20 18 19 18 19 21 22 20 18 17 16 16 17 19 21 22 22 20 19
4 3 6 6 5 5 5 4 4 3 2 2 4 8 11 11 11 7 20 23 25 26 27 26 27 29 27 26 26 27 26 26 26 24 22 21 21 23 26 24 20 18 17 16 15 16 17 19 21 21 20 19 18 17
3 3 2 3 5 4 3 3 5 2 2 2 2 6 6 5 6 9 17 22 25 28 30 30 29 28 28 29 30 30 29 28 28 27 27 24 19 18 18 16 15 15 15 15 16 17 19 20 19 18 17 16 16 18
6 6 7 4 2 3 4 2 2 3 4 4 2 0 1 5 6 11 16 22 26 28 29 28 28 28 29 29 28 28 27 26 23 17 15 15 15 14 13 13 13 14 15 16 17 18 18 18 17 16 16 16 17 19
7 8 8 8 6 3 1 2 2 1 1 2 3 3 6 4 6 11 18 22 24 26 27 26 25 24 25 25 23 19 16 13 13 14 13 12 11 12 12 12 13 14 15 16 17 17 16 16 16 16 17 18 19 21
10 9 9 9 9 7 5 3 2 2 3 2 2 4 4 4 7 10 11 14 16 18 19 19 18 18 18 17 15 13 12 11 10 10 10 11 11 11 11 13 13 13 14 16 16 16 16 15 16 17 18 19 20 21
11 11 10 9 8 8 8 8 7 4 2 1 1 2 3 5 8 10 12 14 15 16 16 15 14 13 12 10 9 8 9 10 10 11 11 10 10 11 12 13 13 14 14 15 15 15 15 15 16 17 18 19 21 22
12 13 12 12 11 10 9 10 11 9 7 6 6 7 8 8 8 8 8 8 8 8 9 9 9 9 9 9 10 11 12 12 12 12 12 11 11 12 13 13 13 13 13 13 14 14 15 15 16 17 19 20 21 22
11 10 10 10 11 11 12 11 12 12 12 11 11 11 11 10 11 11 11 11 12 12 12 11 12 12 12 13 13 14 14 14 14 13 13 13 14 14 13 13 13 13 13 13 13 14 14 15 17 18 18 19 18 18
Wind_Direction
325 326 323 312 288 300 307 315 256 220 185 194 206 201 211 214 213 215 209 204 228 236 224 230 266 246 268 210 195 186 180 185 190 190 185 173 162 185 165 195 196 189 184 192 206 209 257 248 245 202 226 260 286 294
320 326 322 313 300 283 305 310 262 217 183 193 205 211 213 214 207 213 204 208 225 228 220 222 253 228 232 204 204 200 193 196 197 186 176 189 183 191 193 192 192 205 199 205 198 219 239 257 269 251 249 268 278 275
318 322 322 310 304 288 288 308 260 237 191 196 202 206 209 210 205 212 202 211 220 222 223 222 232 237 219 235 217 203 189 185 216 196 189 195 189 186 184 193 195 205 205 216 228 239 247 265 261 255 256 261 267 259
319 318 324 308 306 293 284 289 259 231 196 194 190 200 210 208 204 209 197 210 212 217 222 223 215 232 217 216 239 173 203 176 166 207 215 181 174 188 207 218 209 217 216 226 237 248 252 256 254 251 251 253 248 234
320 316 322 308 306 291 287 285 264 222 199 189 199 204 207 206 202 207 191 207 207 199 230 224 207 212 218 205 203 197 212 205 212 208 199 209 190 213 212 222 233 224 222 229 245 254 247 250 246 242 242 243 235 222
319 315 318 309 306 289 285 284 266 217 199 181 191 199 206 201 199 201 196 205 203 203 210 217 214 205 213 213 201 201 202 201 206 210 221 232 234 236 239 235 237 227 232 237 238 235 239 239 241 240 237 235 231 233
316 314 316 312 306 294 287 280 242 215 188 187 190 195 203 198 197 191 200 209 202 202 208 219 210 211 208 218 211 207 207 209 213 218 231 239 236 228 237 243 249 244 240 240 243 246 243 254 259 245 234 233 235 245
315 316 318 314 307 294 290 276 218 212 185 184 197 196 197 195 198 199 198 210 212 202 205 215 222 200 206 210 211 212 212 214 221 225 233 236 238 240 247 255 254 255 252 247 245 253 253 255 245 233 229 232 239 246
316 318 318 314 307 294 291 268 214 202 183 180 186 189 189 196 194 199 186 192 212 214 199 204 209 207 204 209 213 215 220 223 233 236 239 246 246 237 256 264 267 261 249 245 244 249 248 247 236 223 222 226 239 229
315 316 317 315 308 294 292 244 205 200 177 181 176 179 191 198 195 187 206 185 201 213 235 210 194 194 194 207 209 212 218 228 245 245 248 248 252 252 250 256 256 245 228 237 241 227 245 231 219 208 213 210 212 220
316 316 316 316 308 293 289 214 202 191 174 182 174 187 194 192 192 186 194 190 208 210 228 230 220 213 216 212 203 199 206 212 233 230 226 247 260 269 259 242 242 236 231 214 212 236 214 205 213 202 200 206 209 227
316 315 317 317 306 293 279 208 178 170 194 184 177 180 183 175 182 200 206 190 204 218 215 212 217 213 216 207 201 214 201 214 246 223 220 247 264 262 251 237 227 229 227 222 219 235 205 182 185 193 196 203 224 255
316 318 320 313 305 296 283 220 173 176 189 177 172 179 169 166 189 197 197 193 200 199 213 211 203 210 211 198 195 188 201 219 219 219 234 237 241 235 231 220 210 208 208 208 220 203 178 182 187 186 197 221 265 288
324 324 324 312 307 295 271 206 180 170 180 166 166 156 183 197 211 210 208 210 211 206 216 207 203 191 192 188 181 199 207 209 224 230 238 245 234 226 225 207 191 191 191 202 197 180 182 182 184 190 220 270 288 298
334 329 326 318 311 293 266 200 174 173 169 175 175 187 196 205 209 211 202 207 208 206 214 195 191 191 186 173 193 198 195 215 220 232 240 225 212 201 201 194 184 186 192 186 176 177 178 181 191 231 278 295 301 301
336 334 329 326 313 292 270 196 177 180 181 180 193 199 206 206 200 200 204 202 196 198 192 180 184 186 187 196 193 197 197 215 227 234 207 182 189 193 186 181 176 177 180 177 177 177 179 196 244 285 296 296 296 295
345 343 344 338 318 298 280 205 187 185 201 201 209 206 208 211 208 207 207 208 200 199 193 186 186 191 190 198 198 197 206 209 203 184 183 189 193 194 187 178 173 171 176 180 176 179 202 249 282 291 294 295 294 295
356 350 347 342 327 212 243 191 190 200 196 181 190 199 201 205 208 209 210 203 206 202 206 200 201 198 196 191 210 228 220 214 208 192 194 187 178 173 175 175 170 171 171 173 183 206 251 278 289 294 294 293 293 295
359 353 348 343 336 194 174 173 193 167 173 186 191 182 187 196 200 202 204 202 203 205 202 203 210 218 209 203 209 212 213 205 200 203 188 182 170 164 161 162 163 168 175 187 212 243 267 288 298 297 295 294 295 297
351 353 345 343 331 287 109 147 153 143 171 184 179 180 194 198 200 202 205 202 198 197 202 205 214 199 193 198 191 183 179 186 197 204 193 177 168 165 165 168 174 180 194 215 248 277 296 302 300 297 295 295 297 299
342 349 343 339 327 336 116 148 153 167 169 178 188 193 199 208 208 213 205 199 197 199 203 208 205 190 173 175 174 176 187 198 198 203 211 192 176 172 175 180 188 201 227 262 291 303 302 298 296 293 292 294 297 300
341 342 342 335 335 335 1 116 157 165 175 182 181 182 183 185 194 195 199 198 203 206 206 205 204 202 201 206 232 202 189 187 181 184 182 178 174 178 189 202 221 251 282 299 304 301 297 292 289 288 290 293 297 300
341 341 342 346 350 339 321 189 175 162 167 179 186 181 175 177 182 185 188 196 204 211 220 227 213 190 173 164 163 170 170 169 173 174 177 183 191 202 214 236 254 272 288 295 295 289 283 281 282 286 292 296 298 299
340 345 349 351 352 348 338 344 151 173 169 181 190 189 187 181 181 186 195 197 201 204 206 209 196 178 169 171 171 171 171 170 177 182 190 201 213 225 237 253 268 280 288 287 278 275 276 279 286 291 293 295 297 297
343 346 349 351 355 353 356 345 4 21 185 184 185 184 183 188 190 196 200 200 202 204 202 201 191 180 185 183 180 179 181 184 190 199 209 220 224 235 252 265 274 276 273 269 269 273 279 284 289 292 294 293 292 292
322 334 350 343 350 3 18 12 359 30 116 147 175 176 175 181 180 191 206 204 202 202 202 200 194 190 190 191 191 190 192 196 202 206 213 224 239 249 262 266 261 260 261 264 269 274 280 286 289 290 288 288 289 293
264 257 300 11 27 21 11 13 10 22 67 43 140 159 165 177 182 196 197 200 196 196 196 199 200 196 193 194 195 198 202 206 214 223 239 248 245 242 244 248 253 256 260 265 271 278 283 285 285 285 285 287 292 295
227 224 222 247 297 4 8 351 15 1 30 54 66 268 171 182 194 190 190 193 193 193 194 197 199 201 202 203 206 212 217 232 234 221 221 225 228 233 240 246 253 260 267 274 279 281 282 283 282 282 285 289 293 299
212 215 219 226 237 260 333 11 15 44 67 356 18 43 62 151 166 175 181 185 183 183 185 188 192 196 202 215 214 198 189 188 197 208 217 225 233 242 249 256 262 266 273 278 279 278 277 277 279 283 287 292 297 300
211 213 219 224 226 233 227 196 150 65 43 58 125 160 154 123 126 129 143 157 166 172 175 176 177 181 179 174 169 169 178 196 213 226 237 240 242 247 253 259 263 269 272 272 272 272 273 275 280 285 290 295 297 300
209 208 204 202 212 223 221 218 216 224 247 246 116 123 170 176 155 151 144 144 146 149 153 158 164 168 169 171 178 193 213 225 233 237 241 246 252 256 259 262 264 265 265 265 266 269 274 279 285 290 294 296 299 304
211 212 217 223 224 223 223 221 225 233 233 227 215 205 206 199 193 182 183 185 187 188 191 193 196 201 206 215 223 230 235 236 238 242 248 255 261 261 260 259 259 259 260 263 268 274 280 285 290 292 295 298 303 305
210 209 212 217 222 226 227 226 230 234 236 234 230 230 230 230 237 238 239 243 242 242 240 237 235 235 236 238 240 241 242 244 248 251 255 261 264 261 257 255 255 258 264 269 275 281 287 290 292 294 297 301 302 303